Location: Sungai Dangang
(2.7500°N, 113.8333°E)
Time: 18:06:33
(UTC+00:00)

ASC 2 Rocket - Pass Details

Date: 16 May 2021
Orbit: 555 x 2344 km, 24.0° (Epoch: 19 June)

Event Time Altitude Azimuth Distance (km) Brightness Sun altitude
Rises 12:00:52 0° 300° (WNW) 4,707 9.0 -22.5°
Reaches altitude 10° 12:04:38 10° 304° (WNW) 3,418 7.9 -23.3°
Maximum altitude 12:12:41 59° 22° (NNE) 1,121 4.2 -25.2°
Enters shadow 12:13:52 50° 64° (ENE) 1,161 4.1 -25.5°
